Powrót do katalogu

CZ-3B DEB

AktywnyHEO
NORAD 42473·DEBRIS·🇨🇳 China

Wystrzelony Dec 19, 2011 z Xichang Satellite Launch Center

Loading…

Następne Przeloty (najbliższe 24 godziny)

TLE

ŚwieżeSource: Space-Track

Epoka: Sep 14, 2026, 11:33 UTC

1 42473U 11077AN  26257.48139312 -.00000247  00000-0  00000-0 0  9993
2 42473  23.5498  46.5227 7203475 132.8936 315.9442  1.69257970 64609

Śledź CZ-3B DEB w czasie rzeczywistym z AllMySat

Download on the App Store